Regional Weather Roundup
Issued by NWS Memphis, TN

Current Version | Previous Version | Text Only | Print | Product List | Glossary On
Versions: 1 2 3 4 5 6 7 8 9 10 11 12 13 14 15 16 17 18 19 20 21 22 23 24 25 26 27 28 29 30 31 32 33 34 35 36 37 38 39 40 41 42 43 44 45 46 47 48 49 50
000
ASUS44 KMEG 022310
RWRMEG
MEMPHIS CWA HOURLY WEATHER ROUNDUP
NATIONAL WEATHER SERVICE MEMPHIS TN
600 PM CDT MON MAY 02 2016

...WEST TENNESSEE...

CITY           SKY/WX    TMP DP  RH WIND       PRES   REMARKS
MEMPHIS INTL   PTSUNNY   66  57  72 N6        29.94S
NWS MEMPHIS      N/A     65 N/A N/A MISG        N/A
JACKSON        PTSUNNY   63  58  83 CALM      29.94S
DYERSBURG      CLOUDY    66  54  63 N8          N/A


...EASTERN ARKANSAS...

CITY           SKY/WX    TMP DP  RH WIND       PRES   REMARKS
JONESBORO      PTSUNNY   68  53  58 NW8G18    29.95F
WEST MEMPHIS   PTSUNNY   66  56  70 N7        29.94S
BATESVILLE     CLOUDY    63  50  63 NW9       29.99R
NEWPORT        SUNNY     68  52  56 NW15      29.97S
WALNUT RIDGE   PTSUNNY   66  48  52 NW18      29.96S
BLYTHEVILLE    PTSUNNY   67  57  70 N13       29.95F
SEARCY         PTSUNNY   66  55  68 NW10      29.99S
STUTTGART      MOSUNNY   66  54  63 NW10      29.97F
PINE BLUFF     CLOUDY    66  58  75 N9        29.97F
MONTICELLO     CLOUDY    64  59  83 W5        29.97F


...NORTH MISSISSIPPI...

CITY           SKY/WX    TMP DP  RH WIND       PRES   REMARKS
TUPELO         CLOUDY    66  60  81 N5        29.91F
BATESVILLE     CLOUDY    62  59  92 CALM      29.96R
OLIVE BRANCH   PTSUNNY   63  63 100 N6        29.95R
CORINTH        CLOUDY    63  59  88 CALM      29.91F
GREENWOOD      CLOUDY    64  60  87 NW7       29.93S
GOLDEN TRIANGL PTSUNNY   73  66  78 NW5       29.91R


...SOUTHEAST MISSOURI...

CITY           SKY/WX    TMP DP  RH WIND       PRES   REMARKS
WEST PLAINS    CLOUDY    59  45  59 NW10      30.02F
POPLAR BLUFF   CLOUDY    66  51  58 N5        29.95F
CAPE GIRARDEAU PTSUNNY   63  50  62 N9        29.97F


...NORTHWEST ALABAMA...

CITY           SKY/WX    TMP DP  RH WIND       PRES   REMARKS
MUSCLE SHOALS  CLOUDY    68  62  81 NW9       29.93S


...MIDDLE TENNESSEE...

CITY           SKY/WX    TMP DP  RH WIND       PRES   REMARKS
NASHVILLE      CLOUDY    63  58  83 N6        29.93F
CLARKSVILLE    CLOUDY    60  56  86 CALM      29.93F


...WESTERN KENTUCKY...

CITY           SKY/WX    TMP DP  RH WIND       PRES   REMARKS
PADUCAH        CLOUDY    64  50  60 NW9       29.95S
FORT CAMPBELL  CLOUDY    61  56  82 SW2       29.93F


...CENTRAL ARKANSAS...

CITY           SKY/WX    TMP DP  RH WIND       PRES   REMARKS
LITTLE ROCK    PTSUNNY   68  52  56 NW10      29.98F


SKY/WX REPORTED AS FAIR MEANS FEW OR NO CLOUDS BELOW
12 THOUSAND FEET.





USA.gov is the U.S. government's official web portal to all federal, state and local government web resources and services.